KO4ILY Weather Reports


Display with metric or nautical units.
time (UTC)temp
F
wind
direction
speed
MPH
gust
MPH
rain 1hr
in
rain 24hr
in
rain mn
in
humidity
%
barometer
mb
20260504050006 66 259 0.0 4.0 0.00 0.00 0.00 40 1019.2
20260504040006 66 259 0.0 4.0 0.00 0.00 0.00 40 1019.2
20260504030005 66 259 0.0 4.0 0.00 0.00 0.00 40 1019.2
20260504020006 66 259 0.0 4.0 0.00 0.00 0.00 40 1019.2
20260504010005 66 259 0.0 4.0 0.00 0.00 0.00 40 1019.2
20260504000005 66 259 0.0 4.0 0.00 0.00 0.00 40 1019.2
20260503230006 66 259 0.0 4.0 0.00 0.00 0.00 40 1019.2
20260503220005 66 259 0.0 4.0 0.00 0.00 0.00 40 1019.2
20260503210006 66 259 0.0 4.0 0.00 0.00 0.00 40 1019.2
20260503200005 66 259 0.0 4.0 0.00 0.00 0.00 40 1019.2
20260503190006 66 259 0.0 4.0 0.00 0.00 0.00 40 1019.2
20260503185017 66 259 1.0 4.0 0.00 0.00 0.00 40 1019.8
20260503184018 65 252 1.0 4.0 0.00 0.00 0.00 43 1019.8
20260503183518 65 343 2.0 4.0 0.00 0.00 0.00 42 1019.8
20260503182558 65 34 2.0 6.0 0.00 0.00 0.00 45 1019.8
20260503181518 65 359 1.0 4.0 0.00 0.00 0.00 47 1020.0
20260503180518 65 49 1.0 5.0 0.00 0.00 0.00 47 1020.1
20260503180005 64 263 0.0 5.0 0.00 0.00 0.00 49 1019.7
20260503175519 64 263 2.0 5.0 0.00 0.00 0.00 49 1020.2
20260503174516 64 84 1.0 5.0 0.00 0.00 0.00 48 1020.3
20260503173516 64 44 1.0 4.0 0.00 0.00 0.00 49 1020.5
20260503172538 63 222 2.0 5.0 0.00 0.00 0.00 50 1020.7
20260503171536 63 47 1.0 3.0 0.00 0.00 0.00 49 1020.9
20260503170516 62 32 1.0 4.0 0.00 0.00 0.00 51 1021.0
20260503150538 57 54 2.0 5.0 0.00 0.00 0.00 56 1021.9
20260503130517 48 228 0.0 2.0 0.00 0.00 0.00 81 1021.6
20260503110516 41 192 0.0 1.0 0.00 0.00 0.00 92 1020.8
20260503081517 44 0.0 0.0 0.00 0.00 0.00 87 1019.4
20260503080537 44 38 0.0 0.0 0.00 0.00 0.00 87 1019.4
20260503072517 45 54 0.0 1.0 0.00 0.00 0.00 84 1019.2
20260503071518 46 306 0.0 0.0 0.00 0.00 0.00 83 1019.1
20260503070517 46 323 0.0 0.0 0.00 0.00 0.00 83 1019.0